Orbital Elements at Epoch 2459200.5 (2020-Dec-17.0) TDB
Reference: JPL 17 (heliocentric ecliptic J2000)
Element | Value | Uncertainty (1-sigma) | Units |
e | .01980850470120883 | 3.9356e-08 | |
a | 2.881233227771142 | 2.2483e-08 | au |
q | 2.824160305833558 | 1.1081e-07 | au |
i | 2.617325511717775 | 8.5703e-06 | deg |
node | 153.1380899951715 | 0.00013588 | deg |
peri | 300.4156906416817 | 0.00031353 | deg |
M | 150.5409316206656 | 0.00028414 | deg |
tp | 2458453.504221700843 (2018-Dec-01.00422170) | 0.0014064 | TDB |
period | 1786.3479207457 4.89 | 2.0909e-05 5.725e-08 | d yr |
n | .2015284905136062 | 2.3589e-09 | deg/d |
Q | 2.938306149708726 | 2.2929e-08 | au |
|
| | Orbit Determination Parameters
Additional Information
|